GSAT-8

Last updated on Mon Sep 21 2026 00:02:58 GMT+0000 (Coordinated Universal Time)

1 37605U 11022A 26263.50212806 .00000081 00000+0 00000+0 0 9997 2 37605 2.3699 80.5533 0006291 158.1900 356.5350 1.00271632 54174
UTC large
Height (km)
Speed (km/s)
/
Latitude / Longitude
Inclination (degrees)
Orbital Period (minutes)
Azimuth
Elevation
Range (km)
Doppler Factor

Next 0 passes for location: London (51.5072 / 0.1276)

No passes found over London.
GSAT-8